TITAN 3C TRANSTAGE DEB, 1829

Orbit data source: Space-Track

TITAN 3C TRANSTAGE DEB, 1829 is space debris in LEO originally from a launch on Fri, 15 Oct 1965 UTC launched from the Air Force Eastern Test Range (AFETR). Debris objects in space refer to the collection of defunct objects orbiting the Earth. Examples of debris include non-operational satellites, rocket bodies, and fragments generated from explosions, collisions, or faulty payload assembly.

Loading next visibility...
Identifier
1829, 1965-082DU
Orbit
LEO
Country
Flag of USUS
Related business
Manufacturer
Unknown
Mission
Spacecraft
Bus & Motor
Unknown
Mass
Unknown
Launch date (UTC)
1965-10-15 (61 years ago)
Launch vehicle
Unknown
Launch site
Air Force Eastern Test Range (AFETR)
Object type
Payload
Rocket body
Debris
Shape & HBR
Unknown shape, 0.1 m
Radar Cross Section
Small (<0.1 m²)

Expand to show TLE details & history
Last TLE update: 11 hours ago

TLE from 11 hours ago
0 TITAN 3C TRANSTAGE DEB
1  1829U 65082DU  26129.46543652  .00001465  00000-0  14613-3 0  9990
2  1829  32.2871 167.9261 0023525  77.4502 282.8783 14.89343181214747
Epoch: 2026-05-09T11:10Z
TLE epoch observation values (Epoch: 2026-05-09T11:10:13.715Z)
Latitude
-0.00003°
Longitude
133.08642°
Altitude
595.014 km
Speed
7.567 km/s
True Right ascension
11h 11m 42s
True Declination
0° 00' 00"
Sunlit
Object was in full shadow at epoch
Visualization orbit readout
Latitude
Unknown
Longitude
Unknown
Altitude
Unknown
Speed
Unknown
Apparent Right ascension
Unknown
Apparent Declination
Unknown
Sunlit
N/A
Visualization observer readout
Local Sidereal Time
06:32:34
Azimuth
Unknown
Elevation
Unknown
Doppler factor
Unknown
Orbital elements
Apogee altitude
620.027 km
Perigee altitude
587.178 km
Semi-major axis
6,981.739 km
Eccentricity
0.00235
Inclination
32.2871°
RAAN
167.9261°
Arg. of periapsis
77.4502°
True anomaly
282.61533°
Mean anomaly
282.8783°
Eccentric anomaly
282.74683°
Mean motion
3.72047 °/min
Orbital period
96.76 mins
BSTAR
0.00014613

Documentation

Showing up to 5 results
|